Year,Month,Day,Hour,Minute,Value (Times are PST for temperature in C)
2020,12,02,08,59,3.60
2020,12,02,09,00,3.60
2020,12,02,09,01,3.60
2020,12,02,09,02,3.60
2020,12,02,09,03,3.70
2020,12,02,09,04,3.70
2020,12,02,09,05,3.70
2020,12,02,09,06,3.70
2020,12,02,09,07,3.70
2020,12,02,09,08,3.70
2020,12,02,09,09,3.70
2020,12,02,09,10,3.70
2020,12,02,09,11,3.80
2020,12,02,09,12,3.80
2020,12,02,09,13,3.80
2020,12,02,09,14,3.80
2020,12,02,09,15,3.80
2020,12,02,09,16,3.80
2020,12,02,09,17,3.80
2020,12,02,09,18,3.80
2020,12,02,09,19,3.80
2020,12,02,09,20,3.80
2020,12,02,09,21,3.80
2020,12,02,09,22,3.80
2020,12,02,09,23,3.80
2020,12,02,09,24,3.80
2020,12,02,09,25,3.80
2020,12,02,09,26,3.80
2020,12,02,09,27,3.90
2020,12,02,09,28,3.90
2020,12,02,09,29,3.90
2020,12,02,09,30,3.90
2020,12,02,09,31,3.90
2020,12,02,09,32,4.00
2020,12,02,09,33,4.00
2020,12,02,09,34,4.00
2020,12,02,09,35,4.00
2020,12,02,09,36,4.00
2020,12,02,09,37,4.00
2020,12,02,09,38,4.00
2020,12,02,09,39,3.90
2020,12,02,09,40,3.90
2020,12,02,09,41,3.90
2020,12,02,09,42,3.90
2020,12,02,09,43,3.80
2020,12,02,09,44,3.80
2020,12,02,09,45,3.80
2020,12,02,09,46,3.80
2020,12,02,09,47,3.80
2020,12,02,09,48,3.80
2020,12,02,09,49,3.80
2020,12,02,09,50,3.70
2020,12,02,09,51,3.70
2020,12,02,09,52,3.70
2020,12,02,09,53,3.80
2020,12,02,09,54,3.80
2020,12,02,09,55,3.80
2020,12,02,09,56,3.80
2020,12,02,09,57,3.80
2020,12,02,09,58,3.80
2020,12,02,09,59,3.80
2020,12,02,10,00,3.80
2020,12,02,10,01,3.80
2020,12,02,10,02,3.80
2020,12,02,10,03,3.90
2020,12,02,10,04,3.90
2020,12,02,10,05,3.90
2020,12,02,10,06,3.90
2020,12,02,10,07,4.00
2020,12,02,10,08,4.00
2020,12,02,10,09,4.00
2020,12,02,10,10,4.10
2020,12,02,10,11,4.10
2020,12,02,10,12,4.10
2020,12,02,10,13,4.20
2020,12,02,10,14,4.20
2020,12,02,10,15,4.30
2020,12,02,10,16,4.30
2020,12,02,10,17,4.30
2020,12,02,10,18,4.30
2020,12,02,10,19,4.30
2020,12,02,10,20,4.30
2020,12,02,10,21,4.30
2020,12,02,10,22,4.20
2020,12,02,10,23,4.20
2020,12,02,10,24,4.20
2020,12,02,10,25,4.10
2020,12,02,10,26,4.20
2020,12,02,10,27,4.10
2020,12,02,10,28,4.10
2020,12,02,10,29,4.10
2020,12,02,10,30,4.10
2020,12,02,10,31,4.10
2020,12,02,10,32,4.10
2020,12,02,10,33,4.10
2020,12,02,10,34,4.10
2020,12,02,10,35,4.10
2020,12,02,10,36,4.10
2020,12,02,10,37,4.10
2020,12,02,10,38,4.10
2020,12,02,10,39,4.10
2020,12,02,10,40,4.20
2020,12,02,10,41,4.20
2020,12,02,10,42,4.20
2020,12,02,10,43,4.20
2020,12,02,10,44,4.20
2020,12,02,10,45,4.20
2020,12,02,10,46,4.20
2020,12,02,10,47,4.20
2020,12,02,10,48,4.20
2020,12,02,10,49,4.20
2020,12,02,10,50,4.30
2020,12,02,10,51,4.30
2020,12,02,10,52,4.30
2020,12,02,10,53,4.30
2020,12,02,10,54,4.30
2020,12,02,10,55,4.30
2020,12,02,10,56,4.30
2020,12,02,10,57,4.30
2020,12,02,10,58,4.30
2020,12,02,10,59,4.30
2020,12,02,11,00,4.30
2020,12,02,11,01,4.40
2020,12,02,11,02,4.40
2020,12,02,11,03,4.40
2020,12,02,11,04,4.40
2020,12,02,11,05,4.40
2020,12,02,11,06,4.50
2020,12,02,11,07,4.40
2020,12,02,11,08,4.40
2020,12,02,11,09,4.50
2020,12,02,11,10,4.50
2020,12,02,11,11,4.50
2020,12,02,11,12,4.50
2020,12,02,11,13,4.40
2020,12,02,11,14,4.50
2020,12,02,11,15,4.50
2020,12,02,11,16,4.50
2020,12,02,11,17,4.40
2020,12,02,11,18,4.40
2020,12,02,11,19,4.40
2020,12,02,11,20,4.50
2020,12,02,11,21,4.50
2020,12,02,11,22,4.50
2020,12,02,11,23,4.40
2020,12,02,11,24,4.40
2020,12,02,11,25,4.50
2020,12,02,11,26,4.50
2020,12,02,11,27,4.50
2020,12,02,11,28,4.50
2020,12,02,11,29,4.50
2020,12,02,11,30,4.60
2020,12,02,11,31,4.60
2020,12,02,11,32,4.60
2020,12,02,11,33,4.60
2020,12,02,11,34,4.60
2020,12,02,11,35,4.70
2020,12,02,11,36,4.70
2020,12,02,11,37,4.70
2020,12,02,11,38,4.70
2020,12,02,11,39,4.70
2020,12,02,11,40,4.70
2020,12,02,11,41,4.70
2020,12,02,11,42,4.70
2020,12,02,11,43,4.70
2020,12,02,11,44,4.80
2020,12,02,11,45,4.80
2020,12,02,11,46,4.80
2020,12,02,11,47,4.80
2020,12,02,11,48,4.90
2020,12,02,11,49,4.90
2020,12,02,11,50,5.00
2020,12,02,11,51,5.00
2020,12,02,11,52,5.00
2020,12,02,11,53,5.10
2020,12,02,11,54,5.10
2020,12,02,11,55,5.10
2020,12,02,11,56,5.00
2020,12,02,11,57,5.00
2020,12,02,11,58,4.90
2020,12,02,11,59,4.90
2020,12,02,12,00,4.90
2020,12,02,12,01,4.90
2020,12,02,12,02,4.90
2020,12,02,12,03,4.90
2020,12,02,12,04,4.90
2020,12,02,12,05,4.90
2020,12,02,12,06,4.90
2020,12,02,12,07,4.90
2020,12,02,12,08,4.90
2020,12,02,12,09,4.90
2020,12,02,12,10,4.90
2020,12,02,12,11,4.90
2020,12,02,12,12,4.90
2020,12,02,12,13,4.90
2020,12,02,12,14,4.90
2020,12,02,12,15,5.00
2020,12,02,12,16,5.00
2020,12,02,12,17,5.10
2020,12,02,12,18,5.10
2020,12,02,12,19,5.10
2020,12,02,12,20,5.10
2020,12,02,12,21,5.20
2020,12,02,12,22,5.20
2020,12,02,12,23,5.20
2020,12,02,12,24,5.20
2020,12,02,12,25,5.20
2020,12,02,12,26,5.20
2020,12,02,12,27,5.20
2020,12,02,12,28,5.20
2020,12,02,12,29,5.20
2020,12,02,12,30,5.20
2020,12,02,12,31,5.20
2020,12,02,12,32,5.20
2020,12,02,12,33,5.20
2020,12,02,12,34,5.20
2020,12,02,12,35,5.20
2020,12,02,12,36,5.20
2020,12,02,12,37,5.20
2020,12,02,12,38,5.20
2020,12,02,12,39,5.20
2020,12,02,12,40,5.20
2020,12,02,12,41,5.20
2020,12,02,12,42,5.20
2020,12,02,12,43,5.20
2020,12,02,12,44,5.20
2020,12,02,12,45,5.30
2020,12,02,12,46,5.30
2020,12,02,12,47,5.20
2020,12,02,12,48,5.30
2020,12,02,12,49,5.30
2020,12,02,12,50,5.30
2020,12,02,12,51,5.30
2020,12,02,12,52,5.30
2020,12,02,12,53,5.30
2020,12,02,12,54,5.40
2020,12,02,12,55,5.40
2020,12,02,12,56,5.40
2020,12,02,12,57,5.50
2020,12,02,12,58,5.50
2020,12,02,12,59,5.50
2020,12,02,13,00,5.60
2020,12,02,13,01,5.60
2020,12,02,13,02,5.60
2020,12,02,13,03,5.60
2020,12,02,13,04,5.60
2020,12,02,13,05,5.60
2020,12,02,13,06,5.60
2020,12,02,13,07,5.60
2020,12,02,13,08,5.60
2020,12,02,13,09,5.50
2020,12,02,13,10,5.50
2020,12,02,13,11,5.50
2020,12,02,13,12,5.50
2020,12,02,13,13,5.50
2020,12,02,13,14,5.50
2020,12,02,13,15,5.50
2020,12,02,13,16,5.50
2020,12,02,13,17,5.50
2020,12,02,13,18,5.50
2020,12,02,13,19,5.50
2020,12,02,13,20,5.40
2020,12,02,13,21,5.40
2020,12,02,13,22,5.40
2020,12,02,13,23,5.40
2020,12,02,13,24,5.40
2020,12,02,13,25,5.40
2020,12,02,13,26,5.40
2020,12,02,13,27,5.40
2020,12,02,13,28,5.40
2020,12,02,13,29,5.40
2020,12,02,13,30,5.30
2020,12,02,13,31,5.30
2020,12,02,13,32,5.30
2020,12,02,13,33,5.30
2020,12,02,13,34,5.20
2020,12,02,13,35,5.20
2020,12,02,13,36,5.20
2020,12,02,13,37,5.20
2020,12,02,13,38,5.20
2020,12,02,13,39,5.20
2020,12,02,13,40,5.20
2020,12,02,13,41,5.20
2020,12,02,13,42,5.30
2020,12,02,13,43,5.30
2020,12,02,13,44,5.30
2020,12,02,13,45,5.30
2020,12,02,13,46,5.30
2020,12,02,13,47,5.30
2020,12,02,13,48,5.40
2020,12,02,13,49,5.40
2020,12,02,13,50,5.40
2020,12,02,13,51,5.40
2020,12,02,13,52,5.40
2020,12,02,13,53,5.40
2020,12,02,13,54,5.40
2020,12,02,13,55,5.40
2020,12,02,13,56,5.40
2020,12,02,13,57,5.40
2020,12,02,13,58,5.40
2020,12,02,13,59,5.40
2020,12,02,14,00,5.40
2020,12,02,14,01,5.50
2020,12,02,14,02,5.50
2020,12,02,14,03,5.60
2020,12,02,14,04,5.60
2020,12,02,14,05,5.60
2020,12,02,14,06,5.60
2020,12,02,14,07,5.60
2020,12,02,14,08,5.60
2020,12,02,14,09,5.60
2020,12,02,14,10,5.60
2020,12,02,14,11,5.70
2020,12,02,14,12,5.60
2020,12,02,14,13,5.60
2020,12,02,14,14,5.60
2020,12,02,14,15,5.60
2020,12,02,14,16,5.60
2020,12,02,14,17,5.60
2020,12,02,14,18,5.60
2020,12,02,14,19,5.60
2020,12,02,14,20,5.60
2020,12,02,14,21,5.60
2020,12,02,14,22,5.50
2020,12,02,14,23,5.50
2020,12,02,14,24,5.50
2020,12,02,14,25,5.50
2020,12,02,14,26,5.40
2020,12,02,14,27,5.40
2020,12,02,14,28,5.40
2020,12,02,14,29,5.40
2020,12,02,14,30,5.40
2020,12,02,14,31,5.40
2020,12,02,14,32,5.40
2020,12,02,14,33,5.40
2020,12,02,14,34,5.40
2020,12,02,14,35,5.40
2020,12,02,14,36,5.40
2020,12,02,14,37,5.40
2020,12,02,14,38,5.40
2020,12,02,14,39,5.40
2020,12,02,14,40,5.40
2020,12,02,14,41,5.40
2020,12,02,14,42,5.40
2020,12,02,14,43,5.40
2020,12,02,14,44,5.40
2020,12,02,14,45,5.40
2020,12,02,14,46,5.50
2020,12,02,14,47,5.50
2020,12,02,14,48,5.50
2020,12,02,14,49,5.60
2020,12,02,14,50,5.60
2020,12,02,14,51,5.60
2020,12,02,14,52,5.60
2020,12,02,14,53,5.60
2020,12,02,14,54,5.60
2020,12,02,14,55,5.60
2020,12,02,14,56,5.60
2020,12,02,14,57,5.50
2020,12,02,14,58,5.50
2020,12,02,14,59,5.50
2020,12,02,15,00,5.50
2020,12,02,15,01,5.50
2020,12,02,15,02,5.50
2020,12,02,15,03,5.50
2020,12,02,15,04,5.50
2020,12,02,15,05,5.50
2020,12,02,15,06,5.50
2020,12,02,15,07,5.50
2020,12,02,15,08,5.40
2020,12,02,15,09,5.40
2020,12,02,15,10,5.40
2020,12,02,15,11,5.40
2020,12,02,15,12,5.40
2020,12,02,15,13,5.40
2020,12,02,15,14,5.40
2020,12,02,15,15,5.40
2020,12,02,15,16,5.50
2020,12,02,15,17,5.50
2020,12,02,15,18,5.50
2020,12,02,15,19,5.50
2020,12,02,15,20,5.50
2020,12,02,15,21,5.50
2020,12,02,15,22,5.50
2020,12,02,15,23,5.50
2020,12,02,15,24,5.50
2020,12,02,15,25,5.40
2020,12,02,15,26,5.40
2020,12,02,15,27,5.40
2020,12,02,15,28,5.50
2020,12,02,15,29,5.50
2020,12,02,15,30,5.40
2020,12,02,15,31,5.40
2020,12,02,15,32,5.40
2020,12,02,15,33,5.40
2020,12,02,15,34,5.40
2020,12,02,15,35,5.40
2020,12,02,15,36,5.30
2020,12,02,15,37,5.30
2020,12,02,15,38,5.30
2020,12,02,15,39,5.30
2020,12,02,15,40,5.30
2020,12,02,15,41,5.30
2020,12,02,15,42,5.30
2020,12,02,15,43,5.30
2020,12,02,15,44,5.30
2020,12,02,15,45,5.30
2020,12,02,15,46,5.30
2020,12,02,15,47,5.30
